Regional Weather Roundup
Issued by NWS Charleston, WV

Home | Current Version | Previous Version | Text Only | Print | Product List | Glossary On
Versions: 1 2 3 4 5 6 7 8 9 10 11 12 13 14 15 16 17 18 19 20 21 22 23 24 25 26 27 28 29 30 31 32 33 34 35 36 37 38 39 40 41 42 43 44 45 46 47 48 49 50
000
ASUS41 KRLX 291410
RWRRLX
West Virginia Regional Weather Roundup
National Weather Service Charleston WV
900 AM EST THU JAN 29 2015

Note: "fair" indicates few or no clouds below 12,000 feet with no
significant weather and/or obstructions to visibility.

WVZ003-291500-
Northern Panhandle of West Virginia

CITY           SKY/WX    TMP DP  RH WIND       PRES   REMARKS
WHEELING       CLOUDY    31  14  49 SE9       29.96F
$$

WVZ009-291500-
Northwest West Virginia

CITY           SKY/WX    TMP DP  RH WIND       PRES   REMARKS
PARKERSBURG    CLOUDY    35  16  45 S9        30.00F
$$

WVZ006-291500-
Western West Virginia

CITY           SKY/WX    TMP DP  RH WIND       PRES   REMARKS
HUNTINGTON     CLOUDY    35  19  52 SW6       29.97F
$$

WVZ015-291500-
West Central West Virginia

CITY           SKY/WX    TMP DP  RH WIND       PRES   REMARKS
CHARLESTON     CLOUDY    34  19  54 S6        30.01F
$$

WVZ022-031-291500-
North Central West Virginia

CITY           SKY/WX    TMP DP  RH WIND       PRES   REMARKS
CLARKSBURG     CLOUDY    25  20  81 CALM      30.03F
MORGANTOWN     PTSUNNY   35  13  40 S5        30.02F
$$

WVZ025-035-042-045-291500-
Southern West Virginia

CITY           SKY/WX    TMP DP  RH WIND       PRES   REMARKS
BECKLEY        CLOUDY    33  13  43 SE14      30.08F
LOGAN            N/A     41  16  36 S14G23    30.03F
BLUEFIELD      PTSUNNY   36  13  38 E6        30.11F
LEWISBURG      PTSUNNY   26  19  76 NE5       30.15F
$$

WVZ047-291500-
Northern Mountains of West Virginia

CITY           SKY/WX    TMP DP  RH WIND       PRES   REMARKS
ELKINS         MOSUNNY   20  18  92 CALM      30.09F
$$

WVZ052-291500-
Eastern Panhandle of West Virginia

CITY           SKY/WX    TMP DP  RH WIND       PRES   REMARKS
MARTINSBURG    CLOUDY    20  11  68 CALM      30.25F
PETERSBURG     PTSUNNY   19  15  83 CALM      30.21F
$$



USA.gov is the U.S. government's official web portal to all federal, state and local government web resources and services.